Regional Weather Roundup
Issued by NWS

Home | Current Version | Previous Version | Text Only | Print | Product List | Glossary Off
Versions: 1 2 3 4 5 6 7 8 9 10 11 12 13 14 15 16 17 18 19 20 21 22 23 24 25 26 27 28 29 30 31 32 33 34 35 36 37 38 39 40 41 42 43 44 45 46 47 48 49 50

035
ASUS43 KOAX 252302
RWRNE

WEATHER ROUNDUP FOR NEBRASKA
NATIONAL WEATHER SERVICE OMAHA NE
600 PM CDT TUE JUL 25 2017

NOTES: SATELLITE DATA IS BEING USED TO AUGMENT CLOUD COVER ABOVE
       12000 FEET.
       "FAIR" INDICATES FEW OR NO CLOUDS BELOW 12,000 FEET WITH NO
       SIGNIFICANT WEATHER AND/OR OBSTRUCTIONS TO VISIBILITY.


NEZ001>004-019>022-054>056-260000-
NEBRASKA PANHANDLE

CITY           SKY/WX    TMP DP  RH WIND       PRES   REMARKS
SCOTTSBLUFF    MOSUNNY   96  54  24 N13       29.95S HX  94
ALLIANCE       MOSUNNY   95  59  30 N18G29    29.93S HX  94
CHADRON        CLOUDY    92  58  31 NE20G29   29.94S HX  91
GORDON         FAIR      89  59  36 E18G24    29.95S
KIMBALL        CLOUDY    91  49  23 N10       30.03S
SIDNEY         SUNNY     92  51  24 SE23G30   29.97S
$$

NEZ057>060-069>072-079>082-260000-
SOUTHWEST NEBRASKA

CITY           SKY/WX    TMP DP  RH WIND       PRES   REMARKS
NORTH PLATTE   MOSUNNY  100  65  31 S14       29.88F HX 103
IMPERIAL       CLOUDY    98  52  21 S14G23    29.89F HX  95
LEXINGTON      SUNNY     93  70  46 SE18G25   29.91F HX  99
MCCOOK         SUNNY    101  63  28 S16G23    29.88F HX 103
OGALLALA       CLOUDY    97  59  27 S13       29.89F HX  97
$$

NEZ005>010-023>029-035>040-094-260000-
NORTH CENTRAL NEBRASKA

CITY           SKY/WX    TMP DP  RH WIND       PRES   REMARKS
VALENTINE      CLOUDY    85  59  41 N20G29    29.86R THUNDER
AINSWORTH      PTSUNNY   95  65  36 S18G24    29.86R HX  97
BROKEN BOW     SUNNY     95  68  41 S16G30    29.90F HX  99
O`NEILL        MOSUNNY   91  69  47 S21G26    29.87F HX  96
ORD            SUNNY     94  66  39 S23G32    29.88F HX  97
THEDFORD       MOSUNNY  100  61  27 S17G26    29.88F HX 100
$$

NEZ041-046>049-061>064-073>077-083>087-260000-
SOUTH CENTRAL NEBRASKA

CITY           SKY/WX    TMP DP  RH WIND       PRES   REMARKS
GRAND ISLAND   MOSUNNY   93  70  46 S16G24    29.92F HX  99
AURORA         CLOUDY    91  67  45 S15G22    29.92F HX  95
HASTINGS       SUNNY     94  62  34 S15G24    29.94F HX  94
HEBRON         MOSUNNY   93  68  43 S13G18    29.94F HX  97
HOLDREGE       SUNNY     91  70  49 SE12      29.92F HX  97
KEARNEY        SUNNY     94  71  47 SE14      29.92F HX 101
YORK           PTSUNNY   90  72  55 S14       29.93F HX  96
$$

NEZ011>018-030>034-042>045-260000-
NORTHEAST NEBRASKA

CITY           SKY/WX    TMP DP  RH WIND       PRES   REMARKS
NORFOLK        SUNNY     91  64  40 S16G28    29.89F HX  92
ALBION         CLOUDY    93  69  45 S18G25    29.90F HX  98
BLAIR          SUNNY     93  71  48 S15G23    29.93F HX 100
COLUMBUS       MOSUNNY   91  69  48 S14       29.91F HX  96
FREMONT        SUNNY     95  64  36 S12G20    29.91F HX  97
TEKAMAH        SUNNY     94  69  44 S14G21    29.89F HX  99
WAYNE          CLOUDY    94  69  44 S17G25    29.89F HX  98
$$

NEZ050>053-065>068-078-088>093-260000-
SOUTHEAST NEBRASKA

CITY           SKY/WX    TMP DP  RH WIND       PRES   REMARKS
LINCOLN        MOSUNNY   94  69  44 S15       29.92F HX  99
OMAHA EPPLEY   MOSUNNY   95  74  50 S21G26    29.92F HX 105
BEATRICE       MOSUNNY   96  64  34 S15       29.95F HX  98
FALLS CITY     SUNNY     93  71  48 S12       29.97F HX 100
NEBRASKA CITY  SUNNY     92  73  54 S13       29.96F HX 101
PLATTSMOUTH    SUNNY     91  72  53 SE13G22   29.95F HX  99
$$

NEZ044-045-051>053-067-260000-
OMAHA AREA

CITY           SKY/WX    TMP DP  RH WIND       PRES   REMARKS
OMAHA EPPLEY   MOSUNNY   95  74  50 S21G26    29.92F HX 105
BLAIR          SUNNY     93  71  48 S15G23    29.93F HX 100
FREMONT        SUNNY     95  64  36 S12G20    29.91F HX  97
MILLARD        SUNNY     96  75  50 SE15G24   29.92F HX 108
OFFUTT AFB     SUNNY     94  74  51 SE21      29.93F HX 103
PLATTSMOUTH    SUNNY     91  72  53 SE13G22   29.95F HX  99
WAHOO          FAIR      94  66  39 S18       29.92F HX  96
$$




USA.gov is the U.S. government's official web portal to all federal, state and local government web resources and services.